Weather past 2 weeks in Saipan, Northern Mariana Islands

Now
82 °F

Broken clouds.


Feels Like: 86 °F
Forecast: 73 / 80 °F
Wind: 21 mph from East

Location: Saipan International Airport

Current Time: Mar 1, 2015 at 11:19:37 AM

Latest Report: Mar 1, 2015 at 10:54 AM


Visibility: 10 mi

Pressure: 30.01 "Hg

Humidity: 70%

Dew point: 71 °F

Location of SaipanLocation

Historic Weather in Saipan — Graph

°F

Saipan temperature yesterday

Maximum temperature yesterday: 85 °F (at 1:54 PM)
Minimum temperature yesterday: 74 °F (at 9:54 AM)
Average temperature yesterday: 78 °F

Past Weeks' High & Low Weather Summary

 TemperatureHumidityPressure
High86 °F (Feb 26, 1:54 PM)94% (Feb 28, 12:54 AM)30.09 "Hg (Feb 28, 12:54 AM)
Low70 °F (Feb 18, 6:54 AM)44% (Feb 16, 9:54 AM)29.87 "Hg (Feb 28, 3:24 AM)
Average77 °F67%29.99 "Hg
* Reported Feb 14 9:54 AM — Mar 1 9:54 AM, Saipan, Weather by CustomWeather, © 2015

Note: Actual official high and low records may vary slightly from our data, if they occured in-between our weather recording intervals... More about our weather records

Advertising

Saipan weather history for previous 24 hours

 ConditionsComfort  
Time TempWeatherWind HumidityBarometerVisibility
9:54 AM
Sun, Mar 1
81 °FScattered clouds.20 mph72%30.01 "Hg10 mi
8:54 AM81 °FScattered clouds.24 mph74%30.01 "Hg10 mi
7:54 AM78 °FScattered clouds.16 mph82%29.98 "Hg10 mi
6:54 AM77 °FPassing clouds.16 mph82%29.97 "Hg10 mi
5:54 AM77 °FPartly cloudy.18 mph85%29.96 "Hg10 mi
4:54 AM77 °FPassing clouds.17 mph85%29.96 "Hg10 mi
3:54 AM77 °FPassing clouds.16 mph85%29.95 "Hg10 mi
2:54 AM76 °FPartly cloudy.15 mph88%29.96 "Hg10 mi
1:54 AM76 °FPassing clouds.16 mph88%29.98 "Hg10 mi
12:54 AM76 °FPartly cloudy.15 mph88%29.99 "Hg10 mi
11:54 PM
Sat, Feb 28
78 °FPassing clouds.15 mph82%30.01 "Hg10 mi
10:54 PM78 °FPassing clouds.15 mph79%30.01 "Hg10 mi
9:54 PM78 °FPassing clouds.16 mph79%30.01 "Hg10 mi
9:11 PM79 °FPassing clouds.14 mph79%29.94 "Hg10 mi
9:02 PM79 °FPartly cloudy.13 mph79%29.94 "Hg10 mi
8:54 PM78 °FPartly cloudy.14 mph82%30.00 "Hg10 mi
7:54 PM78 °FPassing clouds.13 mph79%29.99 "Hg10 mi
6:54 PM78 °FPartly cloudy.13 mph79%29.97 "Hg10 mi
5:54 PM80 °FScattered clouds.18 mph74%29.96 "Hg10 mi
4:54 PM81 °FScattered clouds.17 mph72%29.95 "Hg10 mi
3:54 PM83 °FScattered clouds.16 mph68%29.93 "Hg10 mi
2:54 PM84 °FScattered clouds.20 mph65%29.93 "Hg10 mi
1:54 PM85 °FPassing clouds.16 mph68%29.96 "Hg10 mi
12:54 PM84 °FScattered clouds.17 mph67%29.98 "Hg10 mi
11:54 AM83 °FPartly sunny.17 mph70%30.00 "Hg10 mi
Weather by CustomWeather, © 2015

See weather overviewHow to use our weather pages